This is the latest recevied weather packets stored in our database for station/object EA5GK-10. If no packets are shown the sender has not sent any weather packets the latest 10 day(s).
| Time | Temp. | Humidity | Pressure | Rain* | Wind** | Luminosity | Snow |
|---|---|---|---|---|---|---|---|
| 1777972520 | 21.67° C | 33% | 1014 hPa | - | - | - | - |
| 1777971620 | 21.11° C | 33% | 1014 hPa | - | - | - | - |
| 1777970719 | 21.11° C | 34% | 1014.1 hPa | - | - | - | - |
| 1777969819 | 21.11° C | 33% | 1014 hPa | - | - | - | - |
| 1777968919 | 21.11° C | 34% | 1014 hPa | - | - | - | - |
| 1777968019 | 20.56° C | 36% | 1014.2 hPa | - | - | - | - |
| 1777967119 | 20.56° C | 39% | 1014.1 hPa | - | - | - | - |
| 1777966219 | 20.56° C | 36% | 1014.2 hPa | - | - | - | - |
| 1777965319 | 20.56° C | 50% | 1014.3 hPa | - | - | - | - |
| 1777964419 | 20.56° C | 50% | 1014.2 hPa | - | - | - | - |
| 1777963518 | 21.11° C | 50% | 1014.2 hPa | - | - | - | - |
| 1777962618 | 21.11° C | 51% | 1014.2 hPa | - | - | - | - |
| 1777961718 | 21.11° C | 51% | 1014.2 hPa | - | - | - | - |
| 1777960818 | 21.11° C | 51% | 1013.9 hPa | - | - | - | - |
| 1777959918 | 21.11° C | 50% | 1013.9 hPa | - | - | - | - |
| 1777959018 | 21.11° C | 50% | 1013.8 hPa | - | - | - | - |
| 1777958118 | 21.11° C | 50% | 1013.8 hPa | - | - | - | - |
| 1777957218 | 21.11° C | 50% | 1013.7 hPa | - | - | - | - |
| 1777956317 | 21.11° C | 50% | 1013.6 hPa | - | - | - | - |
| 1777955417 | 21.11° C | 50% | 1013.5 hPa | - | - | - | - |
| 1777954517 | 21.67° C | 50% | 1013.5 hPa | - | - | - | - |
| 1777953617 | 21.67° C | 50% | 1013.5 hPa | - | - | - | - |
| 1777952717 | 21.67° C | 50% | 1013.5 hPa | - | - | - | - |
| 1777951817 | 21.67° C | 50% | 1013.5 hPa | - | - | - | - |
| 1777950917 | 21.67° C | 50% | 1013.7 hPa | - | - | - | - |
* Rain since midnight (hover to see other rain measurements)
** Current wind speed in m/s (hover to see current wind gust speed)